Вернуться в каталог

CZ-6A DEB

АктивенSSO
NORAD 54528·DEBRIS·🇨🇳 China

Запущен Nov 11, 2022 с Taiyuan Satellite Launch Center

Loading…

Ближайшие Пролёты (ближайшие 24 часа)

TLE

СвежийSource: Space-Track

Эпоха: Sep 14, 2026, 01:02 UTC

1 54528U 22151KG  26257.04343188  .00001660  00000-0  42940-3 0  9993
2 54528  98.5295 290.7374 0091710  51.4598 309.4770 14.48774018201890

Отслеживайте CZ-6A DEB в реальном времени с AllMySat

Download on the App Store